Location: Newark
(48.1500°N, 2.9667°W)
Time: 18:03:08
(UTC+00:00)

Transit 2A - Pass Details

Date: 30 January 2020
Orbit: 600 x 959 km, 66.7° (Epoch: 22 February)

Event Time Altitude Azimuth Distance (km) Brightness Sun altitude
Rises 18:24:25 0° 192° (SSW) 2,884 9.3 -12.9°
Reaches altitude 10° 18:26:48 10° 184° (S) 1,958 8.3 -13.3°
Maximum altitude 18:30:50 38° 116° (ESE) 930 6.1 -14.0°
Enters shadow 18:32:57 23° 64° (ENE) 1,300 6.6 -14.3°
Drops below altitude 10° 18:34:51 10° 49° (NE) 1,955 - -14.6°
Sets 18:37:14 0° 41° (NE) 2,879 - -15.0°
